| time (UTC) | temp F | wind direction | speed MPH | gust MPH | rain 1hr in | rain 24hr in | rain mn in | humidity % | barometer mb |
| 20260507123046 | 57 | 100 | 0.0 | 2.0 | 0.00 | 0.00 | 0.00 | 44 | 1011.8 |
| 20260507121544 | 57 | 94 | 0.0 | 2.0 | 0.00 | 0.00 | 0.00 | 45 | 1011.9 |
| 20260507120041 | 56 | 114 | 0.0 | 0.0 | 0.00 | 0.00 | 0.00 | 47 | 1011.9 |
| 20260507114548 | 56 | 117 | 0.0 | 0.0 | 0.00 | 0.00 | 0.00 | 48 | 1012.1 |
| 20260507113038 | 57 | 94 | 0.0 | 3.0 | 0.00 | 0.00 | 0.00 | 46 | 1011.9 |
| 20260507111543 | 56 | 105 | 0.0 | 2.0 | 0.00 | 0.00 | 0.00 | 49 | 1012.0 |
| 20260507110034 | 55 | 110 | 0.0 | 0.0 | 0.00 | 0.00 | 0.00 | 50 | 1011.9 |
| 20260507104533 | 55 | 109 | 0.0 | 0.0 | 0.00 | 0.00 | 0.00 | 51 | 1011.8 |
| 20260507103027 | 55 | 109 | 0.0 | 0.0 | 0.00 | 0.00 | 0.00 | 51 | 1011.7 |
| 20260507101523 | 57 | 109 | 0.0 | 0.0 | 0.00 | 0.00 | 0.00 | 48 | 1011.7 |
| 20260507100022 | 59 | 109 | 0.0 | 0.0 | 0.00 | 0.00 | 0.00 | 42 | 1011.7 |
| 20260507094518 | 59 | 109 | 0.0 | 0.0 | 0.00 | 0.00 | 0.00 | 41 | 1011.8 |
| 20260507093013 | 60 | 109 | 0.0 | 0.0 | 0.00 | 0.00 | 0.00 | 39 | 1011.9 |
| 20260507091512 | 61 | 108 | 0.0 | 3.0 | 0.00 | 0.00 | 0.00 | 39 | 1012.0 |
| 20260507090012 | 60 | 86 | 0.0 | 0.0 | 0.00 | 0.00 | 0.00 | 43 | 1012.1 |
| 20260507084514 | 60 | 83 | 0.0 | 0.0 | 0.00 | 0.00 | 0.00 | 42 | 1012.1 |
| 20260507083006 | 61 | 165 | 0.0 | 0.0 | 0.00 | 0.00 | 0.00 | 41 | 1012.1 |
| 20260507081506 | 62 | 84 | 0.0 | 4.0 | 0.00 | 0.00 | 0.00 | 39 | 1012.1 |
| 20260507080010 | 62 | 108 | 0.0 | 2.0 | 0.00 | 0.00 | 0.00 | 40 | 1012.0 |
| 20260507074503 | 60 | 114 | 0.0 | 0.0 | 0.00 | 0.00 | 0.00 | 45 | 1012.0 |
| 20260507073029 | 60 | 307 | 0.0 | 2.0 | 0.00 | 0.00 | 0.00 | 46 | 1012.1 |
| 20260507071529 | 63 | 77 | 0.0 | 0.0 | 0.00 | 0.00 | 0.00 | 39 | 1012.0 |
| 20260507070057 | 62 | 116 | 0.0 | 1.0 | 0.00 | 0.00 | 0.00 | 39 | 1011.9 |
| 20260507064608 | 62 | 91 | 0.0 | 0.0 | 0.00 | 0.00 | 0.00 | 40 | 1012.1 |
| 20260507063054 | 62 | 91 | 0.0 | 0.0 | 0.00 | 0.00 | 0.00 | 40 | 1011.9 |
| 20260507061551 | 63 | 43 | 0.0 | 0.0 | 0.00 | 0.00 | 0.00 | 38 | 1011.9 |
| 20260507060052 | 63 | 43 | 0.0 | 0.0 | 0.00 | 0.00 | 0.00 | 36 | 1011.7 |
| 20260507054600 | 65 | 43 | 0.0 | 0.0 | 0.00 | 0.00 | 0.00 | 35 | 1011.8 |
| 20260507053047 | 64 | 43 | 0.0 | 0.0 | 0.00 | 0.00 | 0.00 | 35 | 1011.8 |
| 20260507051547 | 65 | 43 | 0.0 | 0.0 | 0.00 | 0.00 | 0.00 | 36 | 1011.8 |
| 20260507050046 | 68 | 43 | 0.0 | 0.0 | 0.00 | 0.00 | 0.00 | 31 | 1011.7 |
| 20260507044546 | 68 | 43 | 0.0 | 0.0 | 0.00 | 0.00 | 0.00 | 29 | 1011.6 |
| 20260507043045 | 68 | 43 | 0.0 | 0.0 | 0.00 | 0.00 | 0.00 | 27 | 1011.5 |
| 20260507041551 | 69 | 345 | 0.0 | 0.0 | 0.00 | 0.00 | 0.00 | 26 | 1011.3 |
| 20260507040041 | 70 | 300 | 0.0 | 6.0 | 0.00 | 0.00 | 0.00 | 25 | 1011.2 |
| 20260507034540 | 70 | 295 | 3.0 | 6.0 | 0.00 | 0.00 | 0.00 | 25 | 1011.0 |
| 20260507033044 | 71 | 275 | 4.0 | 8.0 | 0.00 | 0.00 | 0.00 | 24 | 1010.9 |
| 20260507031538 | 71 | 300 | 4.0 | 9.0 | 0.00 | 0.00 | 0.00 | 23 | 1010.8 |
| 20260507030038 | 72 | 304 | 4.0 | 9.0 | 0.00 | 0.00 | 0.00 | 23 | 1010.6 |
| 20260507030035 | 72 | 295 | 4.0 | 9.0 | 0.00 | 0.00 | 0.00 | 23 | 1010.6 |
| 20260507024535 | 72 | 295 | 3.0 | 5.0 | 0.00 | 0.00 | 0.00 | 23 | 1010.5 |
| 20260507023034 | 73 | 300 | 2.0 | 7.0 | 0.00 | 0.00 | 0.00 | 22 | 1010.5 |
| 20260507021503 | 74 | 283 | 4.0 | 9.0 | 0.00 | 0.00 | 0.00 | 21 | 1010.4 |
| 20260507020002 | 75 | 275 | 3.0 | 9.0 | 0.00 | 0.00 | 0.00 | 21 | 1010.4 |
| 20260507014547 | 76 | 312 | 6.0 | 13.0 | 0.00 | 0.00 | 0.00 | 20 | 1010.3 |
| 20260507013042 | 77 | 300 | 4.0 | 13.0 | 0.00 | 0.00 | 0.00 | 20 | 1010.2 |
| 20260507011534 | 78 | 293 | 4.0 | 12.0 | 0.00 | 0.00 | 0.00 | 20 | 1010.2 |
| 20260507010024 | 78 | 290 | 5.0 | 15.0 | 0.00 | 0.00 | 0.00 | 20 | 1010.2 |
| 20260507004523 | 79 | 296 | 6.0 | 11.0 | 0.00 | 0.00 | 0.00 | 21 | 1010.3 |
| 20260507003022 | 79 | 312 | 5.0 | 11.0 | 0.00 | 0.00 | 0.00 | 21 | 1010.2 |
| 20260507001519 | 79 | 293 | 6.0 | 11.0 | 0.00 | 0.00 | 0.00 | 21 | 1010.2 |
| 20260507000027 | 79 | 284 | 5.0 | 10.0 | 0.00 | 0.00 | 0.00 | 21 | 1010.2 |
| 20260506234517 | 79 | 286 | 5.0 | 12.0 | 0.00 | 0.00 | 0.00 | 21 | 1010.1 |
| 20260506233021 | 79 | 262 | 5.0 | 9.0 | 0.00 | 0.00 | 0.00 | 21 | 1010.2 |
| 20260506231514 | 79 | 274 | 0.0 | 14.0 | 0.00 | 0.00 | 0.00 | 22 | 1010.3 |
| 20260506230010 | 80 | 297 | 4.0 | 10.0 | 0.00 | 0.00 | 0.00 | 21 | 1010.4 |
| 20260506224509 | 79 | 281 | 2.0 | 14.0 | 0.00 | 0.00 | 0.00 | 23 | 1010.6 |
| 20260506223007 | 78 | 284 | 5.0 | 17.0 | 0.00 | 0.00 | 0.00 | 23 | 1010.7 |
| 20260506221536 | 79 | 258 | 8.0 | 14.0 | 0.00 | 0.00 | 0.00 | 23 | 1010.8 |
| 20260506220034 | 79 | 252 | 4.0 | 10.0 | 0.00 | 0.00 | 0.00 | 24 | 1010.8 |
| 20260506214530 | 78 | 240 | 4.0 | 15.0 | 0.00 | 0.00 | 0.00 | 25 | 1011.0 |
| 20260506213028 | 78 | 283 | 2.0 | 13.0 | 0.00 | 0.00 | 0.00 | 25 | 1011.3 |
| 20260506211526 | 79 | 243 | 3.0 | 9.0 | 0.00 | 0.00 | 0.00 | 25 | 1011.4 |
| 20260506210026 | 78 | 246 | 4.0 | 8.0 | 0.00 | 0.00 | 0.00 | 26 | 1011.6 |
| 20260506204520 | 78 | 309 | 1.0 | 8.0 | 0.00 | 0.00 | 0.00 | 27 | 1011.8 |
| 20260506203022 | 77 | 285 | 5.0 | 11.0 | 0.00 | 0.00 | 0.00 | 28 | 1012.0 |
| 20260506201520 | 76 | 264 | 4.0 | 12.0 | 0.00 | 0.00 | 0.00 | 28 | 1012.2 |
| 20260506200019 | 78 | 283 | 4.0 | 9.0 | 0.00 | 0.00 | 0.00 | 27 | 1012.3 |
| 20260506194550 | 77 | 271 | 3.0 | 9.0 | 0.00 | 0.00 | 0.00 | 29 | 1012.6 |
| 20260506193047 | 76 | 248 | 0.0 | 7.0 | 0.00 | 0.00 | 0.00 | 30 | 1012.7 |
| 20260506191517 | 76 | 297 | 3.0 | 6.0 | 0.00 | 0.00 | 0.00 | 30 | 1013.1 |
| 20260506190014 | 76 | 210 | 1.0 | 4.0 | 0.00 | 0.00 | 0.00 | 32 | 1013.1 |
| 20260506184510 | 74 | 264 | 4.0 | 15.0 | 0.00 | 0.00 | 0.00 | 33 | 1013.2 |
| 20260506183007 | 74 | 209 | 1.0 | 5.0 | 0.00 | 0.00 | 0.00 | 33 | 1013.4 |
| 20260506181505 | 72 | 256 | 2.0 | 5.0 | 0.00 | 0.00 | 0.00 | 34 | 1013.6 |
| 20260506180006 | 72 | 257 | 2.0 | 5.0 | 0.00 | 0.00 | 0.00 | 34 | 1013.8 |
| 20260506174533 | 72 | 217 | 1.0 | 5.0 | 0.00 | 0.00 | 0.00 | 37 | 1013.8 |
| 20260506173031 | 70 | 260 | 0.0 | 4.0 | 0.00 | 0.00 | 0.00 | 40 | 1013.8 |
| 20260506171542 | 70 | 297 | 1.0 | 4.0 | 0.00 | 0.00 | 0.00 | 40 | 1013.9 |
| 20260506170025 | 70 | 221 | 0.0 | 3.0 | 0.00 | 0.00 | 0.00 | 40 | 1013.9 |
| 20260506164522 | 68 | 240 | 0.0 | 0.0 | 0.00 | 0.00 | 0.00 | 43 | 1013.9 |
| 20260506163025 | 67 | 226 | 0.0 | 4.0 | 0.00 | 0.00 | 0.00 | 45 | 1013.9 |
| 20260506161525 | 67 | 292 | 0.0 | 3.0 | 0.00 | 0.00 | 0.00 | 43 | 1013.7 |
| 20260506160018 | 68 | 315 | 0.0 | 0.0 | 0.00 | 0.00 | 0.00 | 46 | 1013.9 |
| 20260506154514 | 67 | 221 | 0.0 | 2.0 | 0.00 | 0.00 | 0.00 | 47 | 1013.8 |
| 20260506153012 | 65 | 224 | 0.0 | 3.0 | 0.00 | 0.00 | 0.00 | 48 | 1013.8 |
| 20260506151508 | 65 | 229 | 0.0 | 3.0 | 0.00 | 0.00 | 0.00 | 49 | 1013.8 |
| 20260506150007 | 64 | 129 | 0.0 | 3.0 | 0.00 | 0.00 | 0.00 | 50 | 1013.7 |
| 20260506144504 | 63 | 124 | 2.0 | 6.0 | 0.00 | 0.00 | 0.00 | 51 | 1013.7 |
| 20260506143002 | 62 | 113 | 1.0 | 3.0 | 0.00 | 0.00 | 0.00 | 53 | 1013.8 |
| 20260506141558 | 61 | 126 | 0.0 | 3.0 | 0.00 | 0.00 | 0.00 | 55 | 1013.8 |
| 20260506140054 | 60 | 129 | 0.0 | 3.0 | 0.00 | 0.00 | 0.00 | 57 | 1013.7 |
| 20260506134615 | 57 | 136 | 0.0 | 0.0 | 0.00 | 0.00 | 0.00 | 63 | 1013.6 |
| 20260506133051 | 55 | 99 | 0.0 | 0.0 | 0.00 | 0.00 | 0.00 | 68 | 1013.5 |
| 20260506131605 | 53 | 109 | 0.0 | 0.0 | 0.00 | 0.00 | 0.00 | 71 | 1013.3 |
| 20260506130045 | 52 | 106 | 0.0 | 0.0 | 0.00 | 0.00 | 0.00 | 73 | 1013.2 |
| 20260506124542 | 52 | 99 | 0.0 | 1.0 | 0.00 | 0.01 | 0.00 | 72 | 1013.3 |